| time (UTC) | temp F | wind direction | speed MPH | gust MPH | rain 1hr in | rain 24hr in | rain mn in | humidity % | barometer mb |
| 20260901021547 | 78 | 0 | 0.0 | 0.0 | 0.00 | 0.00 | 0.00 | 91 | 1018.6 |
| 20260901020047 | 78 | 0 | 0.0 | 0.0 | 0.00 | 0.00 | 0.00 | 91 | 1018.6 |
| 20260901014548 | 79 | 0 | 0.0 | 1.0 | 0.00 | 0.00 | 0.00 | 90 | 1018.5 |
| 20260901013107 | 79 | 0 | 0.0 | 1.0 | 0.00 | 0.00 | 0.00 | 89 | 1018.4 |
| 20260901011548 | 80 | 51 | 0.0 | 1.0 | 0.00 | 0.00 | 0.00 | 88 | 1018.3 |
| 20260901010046 | 80 | 0 | 0.0 | 0.0 | 0.00 | 0.00 | 0.00 | 86 | 1018.3 |
| 20260901004546 | 81 | 0 | 0.0 | 1.0 | 0.00 | 0.00 | 0.00 | 85 | 1018.2 |
| 20260901003051 | 83 | 0 | 0.0 | 1.0 | 0.00 | 0.00 | 0.00 | 84 | 1018.3 |
| 20260901001547 | 84 | 0 | 0.0 | 1.0 | 0.00 | 0.00 | 0.00 | 82 | 1018.2 |
| 20260901000056 | 86 | 0 | 0.0 | 1.0 | 0.00 | 0.00 | 0.00 | 79 | 1018.2 |
| 20260831234557 | 88 | 0 | 0.0 | 1.0 | 0.00 | 0.00 | 0.00 | 74 | 1018.3 |
| 20260831233050 | 89 | 51 | 0.0 | 1.0 | 0.00 | 0.00 | 0.00 | 69 | 1018.4 |
| 20260831231550 | 90 | 0 | 0.0 | 2.0 | 0.00 | 0.00 | 0.00 | 65 | 1018.4 |
| 20260831230054 | 92 | 37 | 1.0 | 3.0 | 0.00 | 0.00 | 0.00 | 62 | 1018.4 |
| 20260831224549 | 92 | 30 | 1.0 | 3.0 | 0.00 | 0.00 | 0.00 | 59 | 1018.5 |
| 20260831223049 | 92 | 20 | 2.0 | 5.0 | 0.00 | 0.00 | 0.00 | 59 | 1018.6 |
| 20260831221605 | 92 | 54 | 2.0 | 4.0 | 0.00 | 0.00 | 0.00 | 60 | 1018.6 |
| 20260831220048 | 92 | 75 | 2.0 | 5.0 | 0.00 | 0.00 | 0.00 | 59 | 1018.8 |
| 20260831214549 | 92 | 33 | 2.0 | 6.0 | 0.00 | 0.00 | 0.00 | 59 | 1018.7 |
| 20260831213049 | 93 | 29 | 3.0 | 5.0 | 0.00 | 0.00 | 0.00 | 57 | 1018.9 |
| 20260831211552 | 93 | 108 | 0.0 | 3.0 | 0.00 | 0.00 | 0.00 | 56 | 1019.1 |
| 20260831210050 | 92 | 46 | 2.0 | 7.0 | 0.00 | 0.00 | 0.00 | 56 | 1019.2 |
| 20260831204549 | 92 | 73 | 2.0 | 6.0 | 0.00 | 0.00 | 0.00 | 58 | 1019.2 |
| 20260831203126 | 93 | 77 | 1.0 | 6.0 | 0.00 | 0.00 | 0.00 | 58 | 1019.2 |
| 20260831201602 | 92 | 44 | 0.0 | 3.0 | 0.00 | 0.00 | 0.00 | 58 | 1019.3 |
| 20260831200134 | 92 | 98 | 2.0 | 5.0 | 0.00 | 0.00 | 0.00 | 58 | 1019.5 |
| 20260831194556 | 93 | 25 | 2.0 | 6.0 | 0.00 | 0.00 | 0.00 | 57 | 1019.5 |
| 20260831193049 | 92 | 0 | 0.0 | 7.0 | 0.00 | 0.00 | 0.00 | 60 | 1019.6 |
| 20260831191554 | 93 | 128 | 3.0 | 6.0 | 0.00 | 0.00 | 0.00 | 58 | 1019.8 |
| 20260831190049 | 92 | 0 | 1.0 | 6.0 | 0.00 | 0.00 | 0.00 | 60 | 1019.8 |
| 20260831184552 | 92 | 76 | 2.0 | 5.0 | 0.00 | 0.00 | 0.00 | 60 | 1020.2 |
| 20260831183047 | 92 | 37 | 2.0 | 6.0 | 0.00 | 0.00 | 0.00 | 60 | 1020.2 |
| 20260831181553 | 91 | 46 | 1.0 | 8.0 | 0.00 | 0.00 | 0.00 | 60 | 1020.4 |
| 20260831180108 | 91 | 27 | 2.0 | 9.0 | 0.00 | 0.00 | 0.00 | 62 | 1020.9 |
| 20260831174551 | 91 | 107 | 2.0 | 6.0 | 0.00 | 0.00 | 0.00 | 62 | 1021.0 |
| 20260831173051 | 90 | 77 | 3.0 | 9.0 | 0.00 | 0.00 | 0.00 | 64 | 1021.2 |
| 20260831171556 | 91 | 46 | 3.0 | 8.0 | 0.00 | 0.00 | 0.00 | 61 | 1021.3 |
| 20260831170049 | 90 | 103 | 2.0 | 7.0 | 0.00 | 0.00 | 0.00 | 64 | 1021.5 |
| 20260831164548 | 89 | 30 | 2.0 | 6.0 | 0.00 | 0.00 | 0.00 | 64 | 1021.5 |
| 20260831163048 | 89 | 0 | 2.0 | 6.0 | 0.00 | 0.00 | 0.00 | 67 | 1021.7 |
| 20260831161552 | 88 | 24 | 2.0 | 7.0 | 0.00 | 0.00 | 0.00 | 69 | 1021.6 |
| 20260831160055 | 88 | 18 | 3.0 | 7.0 | 0.00 | 0.00 | 0.00 | 70 | 1021.4 |
| 20260831154621 | 87 | 359 | 3.0 | 7.0 | 0.00 | 0.00 | 0.00 | 72 | 1021.5 |
| 20260831153055 | 86 | 18 | 3.0 | 7.0 | 0.00 | 0.00 | 0.00 | 73 | 1021.5 |
| 20260831151549 | 85 | 24 | 4.0 | 9.0 | 0.00 | 0.00 | 0.00 | 73 | 1021.6 |
| 20260831150058 | 84 | 347 | 4.0 | 9.0 | 0.00 | 0.00 | 0.00 | 75 | 1021.3 |
| 20260831144636 | 84 | 32 | 4.0 | 9.0 | 0.00 | 0.00 | 0.00 | 78 | 1021.1 |
| 20260831143056 | 83 | 28 | 3.0 | 7.0 | 0.00 | 0.00 | 0.00 | 78 | 1021.0 |
| 20260831141553 | 83 | 26 | 2.0 | 4.0 | 0.00 | 0.00 | 0.00 | 80 | 1020.9 |
| 20260831140047 | 81 | 44 | 2.0 | 4.0 | 0.00 | 0.00 | 0.00 | 81 | 1021.0 |
| 20260831134550 | 79 | 0 | 1.0 | 6.0 | 0.00 | 0.00 | 0.00 | 85 | 1020.9 |
| 20260831133056 | 78 | 16 | 0.0 | 5.0 | 0.00 | 0.00 | 0.00 | 86 | 1021.0 |
| 20260831131549 | 76 | 34 | 1.0 | 4.0 | 0.00 | 0.00 | 0.00 | 89 | 1021.0 |
| 20260831130053 | 75 | 0 | 0.0 | 3.0 | 0.00 | 0.00 | 0.00 | 91 | 1020.8 |
| 20260831124556 | 74 | 40 | 0.0 | 3.0 | 0.00 | 0.00 | 0.00 | 93 | 1020.7 |
| 20260831123051 | 72 | 58 | 0.0 | 1.0 | 0.00 | 0.00 | 0.00 | 96 | 1020.6 |
| 20260831121549 | 70 | 0 | 0.0 | 1.0 | 0.00 | 0.00 | 0.00 | 98 | 1020.5 |
| 20260831120127 | 70 | 0 | 0.0 | 1.0 | 0.00 | 0.00 | 0.00 | 98 | 1020.5 |
| 20260831114557 | 70 | 0 | 0.0 | 0.0 | 0.00 | 0.00 | 0.00 | 98 | 1020.5 |
| 20260831113053 | 69 | 0 | 0.0 | 0.0 | 0.00 | 0.00 | 0.00 | 98 | 1020.4 |
| 20260831111554 | 69 | 0 | 0.0 | 0.0 | 0.00 | 0.00 | 0.00 | 98 | 1020.1 |
| 20260831110047 | 69 | 0 | 0.0 | 0.0 | 0.00 | 0.00 | 0.00 | 98 | 1020.0 |
| 20260831104603 | 69 | 0 | 0.0 | 0.0 | 0.00 | 0.00 | 0.00 | 97 | 1019.8 |
| 20260831103051 | 70 | 0 | 0.0 | 0.0 | 0.00 | 0.00 | 0.00 | 97 | 1019.7 |
| 20260831101555 | 70 | 0 | 0.0 | 0.0 | 0.00 | 0.00 | 0.00 | 97 | 1019.5 |
| 20260831100050 | 70 | 0 | 0.0 | 0.0 | 0.00 | 0.00 | 0.00 | 97 | 1019.5 |
| 20260831094553 | 70 | 0 | 0.0 | 0.0 | 0.00 | 0.00 | 0.00 | 98 | 1019.4 |
| 20260831093055 | 70 | 0 | 0.0 | 0.0 | 0.00 | 0.00 | 0.00 | 97 | 1019.3 |
| 20260831091549 | 70 | 0 | 0.0 | 1.0 | 0.00 | 0.00 | 0.00 | 97 | 1019.2 |
| 20260831084556 | 71 | 0 | 0.0 | 1.0 | 0.00 | 0.00 | 0.00 | 97 | 1019.1 |
| 20260831083055 | 71 | 0 | 0.0 | 0.0 | 0.00 | 0.00 | 0.00 | 97 | 1019.0 |
| 20260831081550 | 71 | 0 | 0.0 | 0.0 | 0.00 | 0.00 | 0.00 | 97 | 1019.0 |
| 20260831080049 | 71 | 0 | 0.0 | 1.0 | 0.00 | 0.00 | 0.00 | 96 | 1018.8 |
| 20260831074556 | 71 | 0 | 0.0 | 0.0 | 0.00 | 0.00 | 0.00 | 97 | 1018.8 |
| 20260831073051 | 71 | 0 | 0.0 | 1.0 | 0.00 | 0.00 | 0.00 | 96 | 1018.9 |
| 20260831071548 | 71 | 0 | 0.0 | 1.0 | 0.00 | 0.00 | 0.00 | 96 | 1018.9 |
| 20260831070055 | 72 | 0 | 0.0 | 1.0 | 0.00 | 0.00 | 0.00 | 96 | 1019.1 |
| 20260831064557 | 72 | 65 | 0.0 | 1.0 | 0.00 | 0.00 | 0.00 | 96 | 1019.2 |
| 20260831063053 | 72 | 0 | 0.0 | 0.0 | 0.00 | 0.00 | 0.00 | 96 | 1019.2 |
| 20260831061554 | 72 | 0 | 0.0 | 0.0 | 0.00 | 0.00 | 0.00 | 96 | 1019.2 |
| 20260831060105 | 72 | 0 | 0.0 | 1.0 | 0.00 | 0.00 | 0.00 | 95 | 1019.3 |
| 20260831054551 | 73 | 0 | 0.0 | 0.0 | 0.00 | 0.00 | 0.00 | 95 | 1019.3 |
| 20260831053100 | 73 | 0 | 0.0 | 1.0 | 0.00 | 0.00 | 0.00 | 95 | 1019.2 |
| 20260831051557 | 73 | 0 | 0.0 | 1.0 | 0.00 | 0.00 | 0.00 | 95 | 1019.2 |
| 20260831050056 | 73 | 0 | 0.0 | 1.0 | 0.00 | 0.00 | 0.00 | 95 | 1019.2 |
| 20260831044549 | 74 | 0 | 0.0 | 1.0 | 0.00 | 0.00 | 0.00 | 95 | 1019.1 |
| 20260831043052 | 74 | 0 | 0.0 | 0.0 | 0.00 | 0.00 | 0.00 | 95 | 1019.1 |
| 20260831041549 | 74 | 0 | 0.0 | 1.0 | 0.00 | 0.00 | 0.00 | 94 | 1019.3 |
| 20260831040053 | 75 | 0 | 0.0 | 0.0 | 0.00 | 0.00 | 0.00 | 94 | 1019.4 |
| 20260831034552 | 75 | 0 | 0.0 | 0.0 | 0.00 | 0.00 | 0.00 | 94 | 1019.4 |
| 20260831033105 | 75 | 0 | 0.0 | 0.0 | 0.00 | 0.00 | 0.00 | 94 | 1019.4 |
| 20260831031553 | 75 | 0 | 0.0 | 0.0 | 0.00 | 0.00 | 0.00 | 93 | 1019.4 |
| 20260831030050 | 76 | 0 | 0.0 | 0.0 | 0.00 | 0.00 | 0.00 | 93 | 1019.3 |
| 20260831024548 | 76 | 0 | 0.0 | 1.0 | 0.00 | 0.00 | 0.00 | 93 | 1019.2 |
| 20260831023059 | 77 | 0 | 0.0 | 0.0 | 0.00 | 0.00 | 0.00 | 92 | 1019.2 |